[[{"header":{"parameterUnit":"m.s-1","parameterCategory":1,"la1":30.2991,"la2":30.254,"lo1":-89.0895,"lo2":-89.0444,"dy":0.0017,"dx":0.0017,"nx":28,"ny":28,"refTime":"2023-08-25T03:00:00:Z","depth":0,"parameterNumber":2,"parameterNumberName":"U-component_of_WINDS"},"data":[0,0,0,0,0,0,0,0,0,0,0,0,0,0,0,0,0,0,0,0,0,0,0,0,0,0,0,0,0,0,0,0,0,0,0,0,0,0,0,0,0,0,0,0,0,0,0,0,0,0,0,0,0,0,0,0,0,0,2.2253,2.2255,0,2.2398,2.24,2.2401,2.2428,2.2426,2.2425,2.2424,2.257,2.2575,2.258,0,0,0,0,0,0,0,0,0,0,0,0,0,2.1998,2.2002,2.2253,2.2255,2.2257,2.2398,2.24,2.2402,2.2428,2.2426,2.2425,2.2424,2.2568,2.2574,2.258,0,0,0,0,0,0,0,0,0,0,0,0,0,2.2122,2.2004,2.2253,2.2287,2.2291,2.2397,2.24,2.2402,2.2428,2.2426,2.2425,2.2423,2.2566,2.2573,2.2581,2.2662,0,0,2.2604,2.2607,0,0,0,0,0,0,0,0,2.2115,2.2131,2.228,2.2285,2.229,2.2393,2.2363,2.2489,2.2429,2.2376,2.2424,2.2422,2.2512,2.2524,2.2555,2.2669,2.2675,2.2604,2.2609,2.2612,2.2614,0,0,0,0,0,0,0,2.2106,2.2125,2.231,2.2282,2.2288,2.2294,2.231,2.2387,2.2452,2.2381,2.2383,2.24,2.2515,2.2548,2.2559,2.2677,2.2604,2.2611,2.2615,2.2618,2.2867,2.2869,0,0,0,0,0,0,2.2092,2.2118,2.2306,2.2315,2.2196,2.23,2.2318,2.2362,2.2451,2.2464,2.2401,2.24,2.2536,2.255,2.2564,2.2665,2.2612,2.2619,2.2623,2.2864,2.2867,2.2869,0,0,0,0,0,0,2.2086,2.2109,2.23,2.2217,2.2242,2.2307,2.2355,2.2365,2.2399,2.2467,2.2479,2.2423,2.2535,2.2553,2.2638,2.2671,2.2622,2.2629,2.2862,2.2865,2.2868,2.2868,0,0,0,0,0,0,2.2079,2.2106,2.2138,2.2218,2.2246,2.2372,2.2358,2.237,2.2412,2.2412,2.2491,2.2502,2.2535,2.2627,2.2645,2.268,2.2635,2.2859,2.2863,2.2867,2.2865,2.2871,2.2876,0,0,0,0,0,2.207,2.2131,2.2139,2.2162,2.2287,2.2374,2.239,2.2427,2.2414,2.2446,2.2491,2.2499,2.2664,2.2635,2.2656,2.2694,2.2857,2.2862,2.2867,2.2863,2.287,2.2876,0,0,0,0,0,0,2.2052,2.2142,2.2152,2.2242,2.23,2.2378,2.2419,2.2433,2.2496,2.2493,2.2537,2.2554,2.2636,2.2674,2.264,2.2778,2.276,2.2769,2.275,2.2757,2.2762,2.275,2.2641,0,0,0,0,0,2.2059,2.2122,2.2198,2.2269,2.2298,2.2354,2.2393,2.2417,2.2479,2.2503,2.2554,2.2612,2.2678,2.272,2.2783,2.2872,2.2889,2.2908,2.2913,2.2917,2.2924,2.2974,2.2983,2.2885,2.2885,2.2885,0,0,2.2073,2.213,2.2167,2.2267,2.2315,2.2379,2.2374,2.2442,2.249,2.2513,2.2596,2.2636,2.2704,2.2791,2.2832,2.2825,2.2955,2.2923,2.2926,2.2931,2.298,2.2989,2.2997,2.2888,2.2888,2.2887,0,0,2.2131,2.2181,2.2247,2.2296,2.2369,2.2406,2.2422,2.2499,2.2526,2.2611,2.263,2.2687,2.2799,2.2847,2.2886,2.2966,2.2976,2.2985,2.3011,2.3059,2.3067,2.3074,2.3102,2.3111,2.2992,2.2992,2.2992,0,2.2139,2.2237,2.2278,2.2346,2.2389,2.2415,2.2482,2.2527,2.2617,2.2646,2.2637,2.2779,2.2827,2.2926,2.2945,2.2976,2.2995,2.2975,2.3063,2.307,2.3077,2.3104,2.3115,2.2993,2.2993,2.2993,2.2993,0,2.2243,2.2311,2.2355,2.2443,2.2491,2.2558,2.2609,2.2653,2.2674,2.2712,2.2798,2.2857,2.2933,2.2959,2.2979,2.3062,2.3055,2.3054,2.3037,2.3087,2.3113,2.3123,2.2994,2.2994,2.2993,2.2993,0,0,2.2291,2.2403,2.2419,2.2459,2.2543,2.2596,2.2664,2.2741,2.2778,2.284,2.2897,2.2992,2.2993,2.3037,2.3064,2.3106,2.3165,2.31,2.3103,2.311,2.3259,2.3258,2.327,2.3173,2.3176,2.3177,2.3253,0,2.2359,2.2482,2.2522,2.2624,2.2687,2.2715,2.2774,2.2832,2.287,2.2929,2.2971,2.3037,2.3033,2.306,2.3103,2.3149,2.3195,2.3144,2.3227,2.3229,2.3207,2.3284,2.3283,2.3351,2.3264,2.3266,2.3267,0,2.2453,2.2518,2.2627,2.2705,2.2733,2.2785,2.2859,2.2916,2.2982,2.3007,2.3058,2.3081,2.3154,2.3134,2.3234,2.3198,2.3235,2.3262,2.3266,2.3274,2.325,2.3292,2.3374,2.3384,2.3283,2.3282,2.3281,0,2.2477,2.2592,2.2672,2.2706,2.2799,2.2835,2.2875,2.2941,2.2984,2.3049,2.3078,2.3149,2.3188,2.3243,2.3286,2.3267,2.3382,2.3366,2.3404,2.3403,2.3425,2.3423,2.3513,2.3451,2.3451,2.3451,2.3451,0,2.2547,2.2612,2.2684,2.2733,2.2807,2.2853,2.2925,2.2967,2.3025,2.3083,2.3111,2.3164,2.3217,2.3278,2.3312,2.339,2.3407,2.3429,2.3437,2.3426,2.3423,2.3449,2.3445,2.3454,2.3453,2.3452,2.3452,0,2.2585,2.2636,2.2725,2.2806,2.2828,2.2879,2.2949,2.2998,2.3038,2.311,2.313,2.3193,2.3266,2.3314,2.3407,2.343,2.3514,2.3522,2.3492,2.3495,2.3531,2.3526,2.364,2.3657,2.3584,2.3585,2.3585,0,2.2625,2.2677,2.2764,2.2806,2.2846,2.2912,2.2958,2.3006,2.3051,2.3133,2.3171,2.3247,2.3309,2.3424,2.3478,2.3549,2.3558,2.3593,2.3568,2.3556,2.3557,2.3553,2.3559,2.3596,2.3596,2.3597,2.3597,0,2.2692,2.2715,2.278,2.2855,2.2908,2.2969,2.3029,2.3061,2.312,2.317,2.3246,2.3294,2.339,2.3464,2.3541,2.3582,2.3599,2.3605,2.3617,2.3606,2.3586,2.3597,2.3501,2.3601,2.3601,2.3601,2.36,2.36,2.2732,2.2779,2.2849,2.2921,2.2972,2.3028,2.3078,2.3126,2.319,2.3272,2.3297,2.3375,2.3442,2.3548,2.359,2.3652,2.3649,2.3667,2.3671,2.3675,2.3675,2.3577,2.3667,2.3667,2.3667,2.3666,2.3666,0,2.28,2.2847,2.2912,2.2997,2.3054,2.3067,2.3135,2.3181,2.325,2.3312,2.3374,2.3461,2.3533,2.3594,2.3669,2.3707,2.3717,2.3725,2.3722,2.3731,2.3674,2.3655,2.3716,2.3716,2.3716,2.3716,2.3716,2.3716,2.2841,2.2922,2.2954,2.306,2.3107,2.3185,2.3223,2.3275,2.3325,2.3421,2.3482,2.3522,2.3583,2.3663,2.373,2.3746,2.3772,2.3778,2.3796,2.3741,2.3735,2.373,2.3712,2.3784,2.3784,2.3848,2.3849,2.3849]},{"header":{"parameterUnit":"m.s-1","parameterCategory":1,"la1":30.2991,"la2":30.254,"lo1":-89.0895,"lo2":-89.0444,"dy":0.0017,"dx":0.0017,"nx":28,"ny":28,"refTime":"2023-08-25T03:00:00:Z","depth":0,"parameterNumber":3,"parameterNumberName":"V-component_of_WINDS"},"data":[0,0,0,0,0,0,0,0,0,0,0,0,0,0,0,0,0,0,0,0,0,0,0,0,0,0,0,0,0,0,0,0,0,0,0,0,0,0,0,0,0,0,0,0,0,0,0,0,0,0,0,0,0,0,0,0,0,0,1.7943,1.7943,0,1.7908,1.7907,1.7907,1.7856,1.7856,1.7855,1.7854,1.7816,1.7816,1.7816,0,0,0,0,0,0,0,0,0,0,0,0,0,1.7968,1.7967,1.7944,1.7943,1.7943,1.7908,1.7907,1.7907,1.7857,1.7856,1.7855,1.7854,1.7817,1.7816,1.7816,0,0,0,0,0,0,0,0,0,0,0,0,0,1.7947,1.7967,1.7944,1.7913,1.791,1.7908,1.7907,1.7907,1.7857,1.7856,1.7854,1.7853,1.7817,1.7816,1.7816,1.784,0,0,1.7815,1.7815,0,0,0,0,0,0,0,0,1.7948,1.7946,1.7918,1.7915,1.7912,1.7885,1.7902,1.7884,1.7857,1.7877,1.7854,1.7852,1.784,1.7838,1.7834,1.7838,1.7837,1.7815,1.7815,1.7815,1.7815,0,0,0,0,0,0,0,1.795,1.7947,1.7929,1.7918,1.7914,1.7901,1.7897,1.7899,1.7866,1.7875,1.7872,1.7868,1.7838,1.7835,1.7833,1.7836,1.7815,1.7815,1.7815,1.7815,1.7859,1.786,0,0,0,0,0,0,1.7956,1.7949,1.793,1.7928,1.7927,1.7902,1.7897,1.7895,1.7866,1.7861,1.7869,1.7866,1.7836,1.7833,1.7831,1.7858,1.7815,1.7815,1.7814,1.7858,1.7859,1.7861,0,0,0,0,0,0,1.7956,1.7955,1.7932,1.7938,1.7934,1.7903,1.7901,1.7895,1.7891,1.7862,1.7856,1.7871,1.7835,1.7832,1.7839,1.7856,1.7814,1.7814,1.7856,1.7858,1.786,1.7911,0,0,0,0,0,0,1.7957,1.7955,1.7964,1.7938,1.7934,1.794,1.7902,1.7895,1.7891,1.7886,1.7862,1.7857,1.7833,1.7839,1.7838,1.7855,1.7814,1.7854,1.7857,1.7859,1.7908,1.7915,1.7921,0,0,0,0,0,1.7958,1.798,1.7965,1.7963,1.7944,1.7941,1.7938,1.7911,1.7893,1.7901,1.7882,1.7857,1.7854,1.784,1.7839,1.7856,1.7853,1.7856,1.7859,1.7905,1.7914,1.7921,0,0,0,0,0,0,1.8008,1.7976,1.7959,1.7972,1.796,1.7933,1.7943,1.7921,1.7914,1.7909,1.7876,1.7871,1.7882,1.7869,1.7854,1.7878,1.785,1.7853,1.7885,1.7893,1.79,1.7902,1.7814,0,0,0,0,0,1.8021,1.8021,1.7993,1.8007,1.8002,1.7974,1.7971,1.7952,1.7937,1.7932,1.7913,1.79,1.7896,1.7894,1.7888,1.7906,1.79,1.7917,1.7923,1.7929,1.7932,1.794,1.7947,1.7871,1.7871,1.7871,0,0,1.8046,1.8029,1.8031,1.8017,1.8005,1.8006,1.7969,1.7972,1.7972,1.7932,1.7937,1.7923,1.7906,1.7919,1.7923,1.7909,1.7951,1.7933,1.7937,1.7937,1.7944,1.7951,1.7958,1.7873,1.7872,1.7872,0,0,1.8094,1.8081,1.8092,1.8081,1.8063,1.8044,1.8047,1.8023,1.8013,1.8018,1.7987,1.7987,1.7981,1.797,1.7964,1.8008,1.7985,1.8008,1.8041,1.805,1.8056,1.8061,1.8077,1.8083,1.801,1.8011,1.8011,0,1.8128,1.8129,1.81,1.8105,1.8099,1.8063,1.8074,1.8065,1.8046,1.8044,1.8028,1.8019,1.8005,1.8015,1.8026,1.8022,1.8024,1.801,1.8058,1.8062,1.8067,1.8082,1.8088,1.8013,1.8013,1.8013,1.8013,0,1.8172,1.8173,1.8184,1.8168,1.8163,1.8171,1.8144,1.8143,1.8124,1.8107,1.8113,1.8095,1.8085,1.8086,1.8067,1.8093,1.8085,1.8064,1.8035,1.8077,1.8091,1.8096,1.8017,1.8016,1.8016,1.8015,0,0,1.8249,1.8218,1.8222,1.8214,1.8193,1.8193,1.8199,1.819,1.8191,1.8179,1.8184,1.818,1.816,1.8153,1.8133,1.8141,1.8178,1.8119,1.8118,1.813,1.8205,1.8222,1.8229,1.8162,1.8163,1.8164,1.8207,0,1.8293,1.8302,1.8276,1.8292,1.8292,1.8259,1.8264,1.8251,1.8236,1.8234,1.8216,1.8214,1.8188,1.8184,1.819,1.8172,1.8192,1.8168,1.8166,1.8166,1.8171,1.8236,1.8252,1.8294,1.8212,1.8213,1.8213,0,1.8344,1.8337,1.8352,1.833,1.833,1.8335,1.8325,1.8324,1.8309,1.8297,1.829,1.8266,1.8271,1.8244,1.825,1.8234,1.8231,1.8222,1.8223,1.8222,1.8192,1.8236,1.8306,1.8313,1.8221,1.8221,1.822,0,1.84,1.8393,1.8401,1.8396,1.837,1.8375,1.8365,1.8348,1.8345,1.8336,1.8334,1.8326,1.8321,1.8316,1.8291,1.8273,1.83,1.8271,1.829,1.8291,1.8297,1.8297,1.8368,1.8295,1.8295,1.8295,1.8295,0,1.8451,1.8462,1.8426,1.8431,1.8443,1.8413,1.8425,1.8412,1.8398,1.84,1.837,1.8372,1.8339,1.8338,1.8318,1.8326,1.8325,1.8315,1.831,1.8318,1.8319,1.8316,1.8312,1.8297,1.8296,1.8296,1.8296,0,1.8514,1.8491,1.8498,1.8473,1.8468,1.8477,1.8456,1.846,1.8443,1.8446,1.8445,1.8417,1.8414,1.8389,1.838,1.8367,1.8383,1.8372,1.8388,1.8385,1.8406,1.8404,1.8477,1.8485,1.8408,1.8408,1.8409,0,1.8549,1.8556,1.8533,1.8532,1.8523,1.8523,1.8519,1.8491,1.8489,1.8473,1.8479,1.8473,1.8468,1.8465,1.8444,1.8437,1.8426,1.8452,1.8425,1.8433,1.8427,1.8427,1.8428,1.8458,1.8459,1.846,1.8461,0,1.8612,1.86,1.8596,1.8589,1.8586,1.8578,1.8569,1.857,1.8539,1.8538,1.8535,1.8531,1.8522,1.8518,1.8507,1.8496,1.8474,1.8469,1.8474,1.8482,1.8491,1.8487,1.8404,1.8468,1.8467,1.8467,1.8466,1.8466,1.8662,1.8667,1.8652,1.8649,1.8639,1.8631,1.8634,1.8617,1.8615,1.8606,1.8589,1.8589,1.8574,1.8558,1.8549,1.8548,1.8535,1.8541,1.8542,1.8544,1.8549,1.8491,1.8546,1.8546,1.8546,1.8546,1.8546,0,1.8724,1.8713,1.871,1.8699,1.8696,1.8675,1.8664,1.8664,1.8664,1.8652,1.8648,1.8644,1.864,1.8619,1.8612,1.8616,1.8605,1.8615,1.8615,1.8613,1.8561,1.8558,1.8624,1.8624,1.8624,1.8624,1.8624,1.8624,1.8756,1.8765,1.8751,1.8754,1.8743,1.8742,1.8738,1.8731,1.8721,1.8719,1.8716,1.8702,1.8687,1.8679,1.8674,1.8668,1.8667,1.8681,1.8671,1.8624,1.8616,1.8609,1.8606,1.8681,1.8681,1.8722,1.8723,1.8723]}]]